Find Starlink 31292

NORAD ID: 59081 Int'l Des: 2024-041 Owner: SPXS Country: US Constellation: starlink operational
LEOCIRCULAR

当前视图

正在加载3D地球...

About Starlink 31292

Starlink 31292 (NORAD 59081) is a starlink constellation satellite (v2 mini) launched Feb 29, 2024 by SPXS of US. It operates in LEO, CIRCULAR orbit with a mass of 730.00 kg.

关于 Starlink 31292

正在加载描述...

即将过境

Passes for default location (London). Set your location on the main map for personalized predictions.

高度历史

Loading altitude history...

两行轨道根数

1 59081U 24041H 26166.56714603 .00001788 00000-0 74505-4 0 9996
2 59081 43.0022 117.6867 0000817 270.5223 89.5535 15.27568053129233
Epoch: Jun 15, 2026 • Age: 15 hours

当前状态

高度 491.2 km
速度 7.62 km/s
星下点 -31.25°S, 1.02°W
发射日期 Feb 29, 2024
运行时间 2.2 years
类型 internet

技术详情

分类 Payload
质量 730.00 kg
干质量 700.00 kg
总质量 730.00 kg
长度 0.30 m
直径 4.10 m
跨度 29.00 m
形状 Box + pan
制造商 SPXS
平台类型 Starlink V2M
阶段状态 In Orbit
所有者/国家 SPXS/US

Most Searched